Date String (YYYY-MM-DD hh:mm:ss) UTC,Instrument flags,absolute air pressure of the measurement (hPa),sample flow rate (lpm),inlet stack bypass flow (lpm),air temperature of the measurement (°C),ambient temperature measured by the external sensor (°C),aerosol sample conditioner tube jacket temperature (°C),OPC LED temperature (°C),internal box temperature (°C),relative humidity of the measurement (%),span deviation,mass concentration of particles derived from Lorenz-Mie calculation of OPC scattering (μg/m³),mass concentration of particles derived from Lorenz-Mie calculation of OPC scattering (μg/m³),mass concentration of particles derived from Lorenz-Mie calculation of OPC scattering (μg/m³)
DateTimeUTC,F1_M11,P_M11,Q1_M11,Q2_M11,T1_M11,T2_M11,T3_M11,T4_M11,T5_M11,U1_M11,ZSPAN_M11,X0_M11,X2_M11,X1_M11
2023-09-08 23:00:00,SystemResetWarning,0833.2,5.01,000.00,027.9,025.0,000.0,035.9,029.3,14.9,0000.0,0012.02,0003.89,0003.14
2023-09-08 23:01:00,SystemResetWarning,0833.2,5.01,000.00,027.8,024.4,000.0,035.9,029.2,15.4,0000.0,0013.35,0003.92,0003.13
2023-09-08 23:02:00,SystemResetWarning,0833.2,5.01,000.00,027.8,024.7,000.0,035.8,029.2,15.2,0000.0,0013.02,0003.88,0003.13
2023-09-08 23:03:00,SystemResetWarning,0833.2,5.01,000.00,027.7,025.0,000.0,035.9,029.2,15.1,0000.0,0012.88,0003.86,0003.12
2023-09-08 23:04:00,SystemResetWarning,0833.2,4.99,000.00,027.7,025.5,000.0,035.9,029.3,15.1,0000.0,0012.88,0003.86,0003.11
2023-09-08 23:05:00,SystemResetWarning,0833.2,4.99,000.00,027.8,025.9,000.0,035.9,029.4,15.3,0000.0,0013.22,0003.85,0003.11
2023-09-08 23:06:00,SystemResetWarning,0833.2,5.00,000.00,027.8,026.4,000.0,035.9,029.5,15.2,0000.0,0013.52,0003.83,0003.10
2023-09-08 23:07:00,SystemResetWarning,0833.2,5.01,000.00,027.9,026.7,000.0,036.0,029.6,15.0,0000.0,0012.97,0003.80,0003.08
2023-09-08 23:08:00,SystemResetWarning,0833.2,4.99,000.00,027.9,025.8,000.0,035.9,029.5,15.1,0000.0,0012.03,0003.76,0003.05
2023-09-08 23:09:00,SystemResetWarning,0833.2,4.99,000.00,027.8,024.5,000.0,035.9,029.2,15.1,0000.0,0012.46,0003.77,0003.03
2023-09-08 23:10:00,SystemResetWarning,0833.2,5.01,000.00,027.8,024.5,000.0,035.8,029.2,15.4,0000.0,0013.11,0003.74,0003.03
2023-09-08 23:11:00,SystemResetWarning,0833.2,5.02,000.00,027.7,024.8,000.0,035.9,029.2,15.6,0000.0,0013.70,0003.74,0003.00
2023-09-08 23:12:00,SystemResetWarning,0833.2,4.99,000.00,027.7,025.2,000.0,035.9,029.2,16.4,0000.0,0012.76,0003.73,0003.00
2023-09-08 23:13:00,SystemResetWarning,0833.2,5.00,000.00,027.7,025.7,000.0,035.9,029.3,15.0,0000.0,0012.94,0003.71,0003.00
2023-09-08 23:14:00,SystemResetWarning,0833.2,5.01,000.00,027.8,026.1,000.0,035.9,029.4,14.6,0000.0,0012.99,0003.72,0002.99
2023-09-08 23:15:00,SystemResetWarning,0833.2,5.01,000.00,027.8,026.5,000.0,036.0,029.5,15.0,0000.0,0012.86,0003.70,0002.98
2023-09-08 23:16:00,SystemResetWarning,0833.2,4.99,000.00,027.9,026.4,000.0,036.0,029.6,15.5,0000.0,0012.04,0003.67,0002.96
2023-09-08 23:17:00,SystemResetWarning,0833.2,5.00,000.00,027.8,025.1,000.0,035.9,029.3,15.5,0000.0,0011.58,0003.67,0002.94
2023-09-08 23:18:00,SystemResetWarning,0833.2,5.01,000.00,027.8,024.3,000.0,035.9,029.2,15.1,0000.0,0011.82,0003.65,0002.94
2023-09-08 23:19:00,SystemResetWarning,0833.2,5.02,000.00,027.7,024.6,000.0,035.8,029.2,15.0,0000.0,0012.11,0003.64,0002.92
2023-09-08 23:20:00,SystemResetWarning,0833.2,5.00,000.00,027.7,025.0,000.0,035.8,029.2,15.4,0000.0,0011.59,0003.57,0002.90
2023-09-08 23:21:00,SystemResetWarning,0833.2,4.99,000.00,027.7,025.4,000.0,035.9,029.2,14.7,0000.0,0011.01,0003.57,0002.88
2023-09-08 23:22:00,SystemResetWarning,0833.2,5.00,000.00,027.7,025.9,000.0,035.9,029.4,14.7,0000.0,0010.54,0003.53,0002.88
2023-09-08 23:23:00,SystemResetWarning,0833.2,5.01,000.00,027.8,026.3,000.0,035.9,029.5,15.2,0000.0,0009.95,0003.49,0002.87
2023-09-08 23:24:00,SystemResetWarning,0833.2,5.00,000.00,027.8,026.6,000.0,036.0,029.6,15.7,0000.0,0009.92,0003.51,0002.87
2023-09-08 23:25:00,SystemResetWarning,0833.2,4.99,000.00,027.9,026.6,000.0,036.0,029.6,15.7,0000.0,0009.46,0003.53,0002.86
2023-09-08 23:26:00,SystemResetWarning,0833.1,4.99,000.00,027.9,025.2,000.0,035.9,029.4,15.5,0000.0,0009.48,0003.53,0002.85
2023-09-08 23:27:00,SystemResetWarning,0833.1,5.01,000.00,027.8,024.4,000.0,035.9,029.2,15.3,0000.0,0009.75,0003.51,0002.85
2023-09-08 23:28:00,SystemResetWarning,0833.1,5.01,000.00,027.8,024.6,000.0,035.9,029.3,15.4,0000.0,0011.11,0003.52,0002.85
2023-09-08 23:29:00,SystemResetWarning,0833.0,5.00,000.00,027.7,025.0,000.0,035.9,029.2,15.3,0000.0,0011.74,0003.52,0002.84
2023-09-08 23:30:00,SystemResetWarning,0833.1,5.00,000.00,027.7,025.4,000.0,035.9,029.3,15.4,0000.0,0011.41,0003.56,0002.84
2023-09-08 23:31:00,SystemResetWarning,0833.2,5.00,000.00,027.8,025.9,000.0,035.9,029.4,15.3,0000.0,0011.38,0003.60,0002.85
2023-09-08 23:32:00,SystemResetWarning,0833.2,5.00,000.00,027.8,026.3,000.0,036.0,029.5,15.4,0000.0,0011.92,0003.64,0002.84
2023-09-08 23:33:00,SystemResetWarning,0833.2,5.00,000.00,027.9,026.6,000.0,036.0,029.6,14.7,0000.0,0012.14,0003.67,0002.84
2023-09-08 23:34:00,SystemResetWarning,0833.2,4.98,000.00,027.9,026.0,000.0,036.0,029.5,14.9,0000.0,0012.31,0003.70,0002.84
2023-09-08 23:35:00,SystemResetWarning,0833.2,5.00,000.00,027.8,024.5,000.0,035.9,029.2,15.2,0000.0,0012.21,0003.69,0002.86
2023-09-08 23:36:00,SystemResetWarning,0833.2,5.02,000.00,027.8,024.4,000.0,035.9,029.2,15.2,0000.0,0012.59,0003.68,0002.86
2023-09-08 23:37:00,SystemResetWarning,0833.2,5.00,000.00,027.7,024.7,000.0,035.9,029.2,15.3,0000.0,0013.16,0003.69,0002.87
2023-09-08 23:38:00,SystemResetWarning,0833.2,4.99,000.00,027.7,025.1,000.0,035.9,029.2,15.3,0000.0,0013.21,0003.73,0002.90
2023-09-08 23:39:00,SystemResetWarning,0833.2,5.00,000.00,027.7,025.6,000.0,035.9,029.3,14.8,0000.0,0011.61,0003.70,0002.92
2023-09-08 23:40:00,SystemResetWarning,0833.2,5.00,000.00,027.8,026.0,000.0,035.9,029.4,14.7,0000.0,0010.53,0003.73,0002.96
2023-09-08 23:41:00,SystemResetWarning,0833.2,5.00,000.00,027.8,026.4,000.0,036.0,029.5,14.9,0000.0,0010.98,0003.71,0002.99
2023-09-08 23:42:00,SystemResetWarning,0833.3,4.99,000.00,027.9,026.7,000.0,036.0,029.7,14.9,0000.0,0010.70,0003.71,0003.02
2023-09-08 23:43:00,SystemResetWarning,0833.2,4.98,000.00,027.9,026.1,000.0,036.0,029.6,15.0,0000.0,0010.87,0003.71,0003.06
2023-09-08 23:44:00,SystemResetWarning,0833.2,5.00,000.00,027.9,024.7,000.0,035.9,029.2,15.5,0000.0,0011.83,0003.76,0003.10
2023-09-08 23:45:00,SystemResetWarning,0833.2,5.01,000.00,027.8,024.4,000.0,035.9,029.2,15.9,0000.0,0011.76,0003.76,0003.10
2023-09-08 23:46:00,SystemResetWarning,0833.2,5.01,000.00,027.8,024.7,000.0,035.9,029.2,15.6,0000.0,0011.32,0003.76,0003.08
2023-09-08 23:47:00,SystemResetWarning,0833.2,4.98,000.00,027.7,025.1,000.0,035.9,029.2,15.5,0000.0,0010.93,0003.75,0003.08
2023-09-08 23:48:00,SystemResetWarning,0833.2,5.01,000.00,027.7,025.5,000.0,035.9,029.3,16.2,0000.0,0010.97,0003.79,0003.08
2023-09-08 23:49:00,SystemResetWarning,0833.2,5.01,000.00,027.8,025.9,000.0,035.9,029.4,14.8,0000.0,0010.92,0003.93,0003.21
2023-09-08 23:50:00,SystemResetWarning,0833.2,5.00,000.00,027.8,026.3,000.0,036.0,029.5,14.5,0000.0,0011.20,0003.98,0003.24
2023-09-08 23:51:00,SystemResetWarning,0833.3,5.00,000.00,027.9,026.7,000.0,036.0,029.7,15.0,0000.0,0011.91,0003.97,0003.21
2023-09-08 23:52:00,SystemResetWarning,0833.3,4.99,000.00,027.9,026.2,000.0,036.0,029.6,14.6,0000.0,0011.39,0003.94,0003.19
2023-09-08 23:53:00,SystemResetWarning,0833.2,5.00,000.00,027.9,024.7,000.0,035.9,029.3,14.7,0000.0,0011.60,0003.91,0003.17
2023-09-08 23:54:00,SystemResetWarning,0833.2,5.02,000.00,027.8,024.4,000.0,035.9,029.3,14.7,0000.0,0011.36,0003.89,0003.17
2023-09-08 23:55:00,SystemResetWarning,0833.2,5.00,000.00,027.8,024.7,000.0,035.9,029.3,14.6,0000.0,0010.56,0003.84,0003.16
2023-09-08 23:56:00,SystemResetWarning,0833.3,5.00,000.00,027.7,025.1,000.0,035.9,029.3,14.4,0000.0,0010.10,0003.83,0003.16
2023-09-08 23:57:00,SystemResetWarning,0833.3,5.00,000.00,027.8,025.6,000.0,035.9,029.3,15.0,0000.0,0010.07,0003.84,0003.16
2023-09-08 23:58:00,SystemResetWarning,0833.3,5.00,000.00,027.8,026.0,000.0,036.0,029.5,15.1,0000.0,0010.08,0003.86,0003.18
2023-09-08 23:59:00,SystemResetWarning,0833.4,5.00,000.00,027.9,026.4,000.0,036.0,029.6,15.6,0000.0,0009.79,0003.84,0003.18
